Regional Weather Roundup
Issued by NWS

Home | Current Version | Previous Version | Graphics & Text | Print | Product List | Glossary On
Versions: 1 2 3 4 5 6 7 8 9 10 11 12 13 14 15 16 17 18 19 20 21 22 23 24 25 26 27 28 29 30 31 32 33 34 35 36 37 38 39 40 41 42 43 44 45 46 47 48 49 50
000
ASUS45 KCYS 012110
RWRWY

WYOMING REGIONAL WEATHER ROUNDUP
NATIONAL WEATHER SERVICE CHEYENNE WY
300 PM MDT FRI AUG 01 2014

NOTE:  "FAIR" INDICATES FEW OR NO CLOUDS BELOW 12,000 FEET
WITH NO SIGNIFICANT WEATHER AND/OR OBSTRUCTIONS TO VISIBILITY.

WYZ001-012200-
YELLOWSTONE NATIONAL PARK

CITY           SKY/WX    TMP DP  RH WIND       PRES   REMARKS
LK YELLOWSTONE   N/A     66  46  48 VRB3      30.44R
W YELLOWSTONE  NOT AVBL

$$
WYZ002>013-054>058-071-098>099-012200-
NORTHERN WYOMING

CITY           SKY/WX    TMP DP  RH WIND       PRES   REMARKS
JACKSON        SUNNY     79  36  21 CALM      30.30F
CODY           MOSUNNY   84  43  23 NE6       30.21F
GREYBULL       SUNNY     93  33  12 VRB5      30.11F
WORLAND        SUNNY     90  35  14 NE7       30.13F
SHERIDAN       PTSUNNY   88  43  20 SW20      30.15F
BUFFALO        PTSUNNY   75  42  30 W25G33    30.25R
GILLETTE       MOSUNNY   87  38  17 N10       30.16S
HULETT         FAIR      88  41  19 MISG      30.14
NEWCASTLE      FAIR      86  34  15 MISG      30.15

$$
WYZ014>020-022>026-101>103-012200-
CENTRAL WYOMING

CITY           SKY/WX    TMP DP  RH WIND       PRES   REMARKS
BIG PINEY      MOSUNNY   78  32  18 SW6       30.34F
PINEDALE       MOCLDY    77  30  18 E5        30.34F
DUBOIS         FAIR      64  41  42 NW17      30.39S
LANDER         MOSUNNY   88  30  12 NW8       30.24F
RIVERTON       MOSUNNY   84  30  14 SE6       30.23F
CASPER         MOSUNNY   85  29  13 VRB5      30.21F
DOUGLAS        MOSUNNY   88  35  15 SE8       30.21S

$$
WYZ021-027>030-104>119-012200-
SOUTHERN WYOMING

CITY           SKY/WX    TMP DP  RH WIND       PRES   REMARKS
EVANSTON       SUNNY     79  27  14 E5        30.33F
KEMMERER       CLEAR    N/A N/A N/A CALM      30.36S
FORT BRIDGER   FAIR      81  29  15 SE12G17   30.36S
ROCK SPRINGS   MOSUNNY   83  29  14 E6        30.29F
DIXON          FAIR      82  27  13 SE3       30.26F
RAWLINS        SUNNY     81  26  13 E13G23    30.31F
SARATOGA       FAIR      79  28  15 N5        30.31F
LARAMIE        SUNNY     72  36  26 SE6G16    30.35F
CHEYENNE       MOSUNNY   77  39  25 SW10      30.30F
TORRINGTON     SUNNY     89  40  17 SE5       30.16F
PINE BLUFFS    MOCLDY    79  41  25 SE6       30.25S

$$


USA.gov is the U.S. government's official web portal to all federal, state and local government web resources and services.